sat.trackr.live / text

‹ back to catalog

FLOCK 4H-15

NORAD 66718 · 2025-276BE

PAYLOAD ACTIVE UNKNOWN

§ Identity

Operator
Country
US
Launch date
2025-11-28
Launch site
AFWTR
Launch vehicle
Mass (kg)
RCS (m²)

Purposes: earth_obs

External: N2YO · Heavens-Above · Gunter

§ Orbital elements

Epoch: 2026-09-18T10:45:18.444096Z

Period
94.65 min
Inclination
97.4135°
Eccentricity
0.0004462
Mean motion
15.21441517 rev/d
Perigee alt
498.4 km
Apogee alt
504.6 km
Semi-major
6,879.6 km
B*
6.6866e-4
RAAN
333.4289°
Arg perigee
64.1406°
Mean anomaly
296.0290°
Rev number
4,458

§ Raw data

FLOCK 4H-151 66718U 25276BE  26261.44813014  .00014972  00000+0  66866-3 0  99992 66718  97.4135 333.4289 0004462  64.1406 296.0290 15.21441517 44588

JSON: /api/v1/satellites/66718 · /tle

For live sub-satellite position, see the globe view (requires WebGL).

§ Visibility from observer

Set your observer location to see the next 7 days of passes ≥ 10°. The values pass through the URL so the page stays shareable.

No JS? Fill the form by hand. The geolocation button needs JavaScript.